Regional Weather Roundup
Issued by NWS Green Bay, WI

Home | Current Version | Previous Version | Graphics & Text | Print | Product List | Glossary Off
Versions: 1 2 3 4 5 6 7 8 9 10 11 12 13 14 15 16 17 18 19 20 21 22 23 24 25 26 27 28 29 30 31 32 33 34 35 36 37 38 39 40 41 42 43 44 45 46 47 48 49 50

000
ASUS43 KGRB 260100
RWRGRB

NORTH-CENTRAL AND NORTHEAST WISCONSIN REGIONAL WEATHER ROUNDUP
NATIONAL WEATHER SERVICE GREEN BAY WI
800 PM CDT TUE APR 25 2017

WIZ005-009-010>012-018-019-260200-
NORTH CENTRAL WISCONSIN

CITY           SKY/WX    TMP DP  RH WIND       PRES   REMARKS
IRONWOOD       CLOUDY    40  36  86 N9        29.68
MANITOWISH WTR NOT AVBL
ARBOR VITAE    NOT AVBL
EAGLE RIVER    NOT AVBL
LAND O LAKES   NOT AVBL
RHINELANDER    LGT RAIN  60  51  72 SW7       29.62R
PHILLIPS       LGT RAIN  54  51  89 NW5       29.60R
ANTIGO         NOT AVBL
TOMAHAWK       NOT AVBL
MERRILL        NOT AVBL
$$

WIZ013-073-260200-
NORTHEAST WISCONSIN

CITY           SKY/WX    TMP DP  RH WIND       PRES   REMARKS
IRON MOUNTAIN  CLOUDY    60  45  57 SE10      29.61S
MARINETTE      CLOUDY    58  51  78 E8        29.63R
$$

WIZ017-030-035>037-045-260200-
CENTRAL WISCONSIN

CITY           SKY/WX    TMP DP  RH WIND       PRES   REMARKS
MEDFORD        NOT AVBL
WAUSAU         LGT RAIN  57  52  83 NW8       29.58R
MOSINEE        CLOUDY    57  54  88 N10       29.59S
MARSHFIELD     LGT RAIN  56  52  86 N9        29.56F
WISC RAPIDS    CLOUDY    61  52  72 NE6       29.56F
STEVENS POINT  NOT AVBL
WAUPACA        NOT AVBL
SHAWANO        CLOUDY    66  49  55 S8        29.59S
CLINTONVILLE   CLOUDY    63  48  59 SE6       29.59R
WAUTOMA          N/A     67  52  58 E8        29.56
$$

WIZ038-039-048-051-260200-
FOX VALLEY

CITY           SKY/WX    TMP DP  RH WIND       PRES   REMARKS
NWS GREEN BAY  PTCLDY    61  52  72 SE7       29.60R
APPLETON       MOCLDY    63  46  55 SE7       29.58S
OSHKOSH        PTCLDY    64  49  57 SE9       29.58R
FOND DU LAC    PTCLDY    66  49  54 SE13      29.58R
$$

WIZ022-050-052-260200-
EAST CENTRAL WISCONSIN

CITY           SKY/WX    TMP DP  RH WIND       PRES   REMARKS
EPHRAIM        NOT AVBL
WASHINGTON ISL NOT AVBL
STURGEON BAY   CLOUDY    61  52  72 S9        29.63R
MANITOWOC      NOT AVBL
SHEBOYGAN      CLOUDY    59  52  77 SE3       29.60S
$$

LMZ563-521-522-541>543-260200-
LAKESHORE

STATION/POSITION TIME  TEMP    WIND        PRES    VSBY  WAVE
                       AIR SEA DIR/SP/G                  HT/PER
                 (UTC) (F)     (DEG/KT/KT) (MB)    (MI)  (FT/S)
SHEBOYGAN LKSHOR 0000   50      60/  3/  3 1002.3F
KEWAUNEE LKSHORE 0030   53     180/  6/  6 1002.7S
NORTHPORT PIER   0040   43     150/  3/  5 1004.1S
N MID LAKE BUOY  2350   40 37   80/  6/  8 1005.7F         1/ 4
CHAMBERS ISLAND  0040   45      30/  2/  7 1003.4R
MENOMINEE LKSHOR 0030   57     160/  4/  6 1002.0F
$$



USA.gov is the U.S. government's official web portal to all federal, state and local government web resources and services.